Regional Weather Roundup
Issued by NWS Charleston, SC

Home | Current Version | Previous Version | Text Only | Print | Product List | Glossary On
Versions: 1 2 3 4 5 6 7 8 9 10 11 12 13 14 15 16 17 18 19 20 21 22 23 24 25 26 27 28 29 30 31 32 33 34 35 36 37 38 39 40 41 42 43 44 45 46 47 48 49 50
000
ASUS42 KCHS 280710
RWRCHS

REGIONAL WEATHER ROUNDUP
NATIONAL WEATHER SERVICE CHARLESTON SC
200 AM EST WED JAN 28 2015

NOTE: "FAIR" INDICATES FEW OR NO CLOUDS BELOW 12,000 FEET WITH NO
SIGNIFICANT WEATHER AND/OR OBSTRUCTIONS TO VISIBILITY.

NOT ALL STATIONS ARE QUALITY CONTROLLED BY THE NATIONAL
WEATHER SERVICE. USE DATA WITH CAUTION...ESPECIALLY
DEWPOINT OBSERVATIONS.

SCZ027-030-031-034>040-042>050-280800-
...SOUTHEAST SOUTH CAROLINA...

CITY           SKY/WX    TMP DP  RH WIND       PRES   REMARKS
N CHARLESTON   CLEAR     33  27  78 N8        30.05R WCI  26
WATERFRONT PRK   N/A     41 N/A N/A N13         N/A
MOUNT PLEASANT LGT RAIN N/A N/A N/A N5        30.04R
PINOPOLIS      NOT AVBL
MONCKS CORNER  FAIR      41  27  56 N9        30.05R
SUMMERVILLE    NOT AVBL
BEAUFORT MCAS  CLEAR     40  29  64 NW7       30.08R WCI  35
BEAUFORT ARPT  FAIR      41  32  70 NW10      30.07R
HILTON HEAD IS CLEAR     43  32  65 NW8       30.08R
WALTERBORO     SUNNY     34  28  80 NW3       30.07R
ALLENDALE      FAIR      37  27  65 CALM      30.08R

...SOUTHERN MIDLANDS AND PEE DEE...

CITY           SKY/WX    TMP DP  RH WIND       PRES   REMARKS
GEORGETOWN     NOT AVBL
KINGSTREE      NOT AVBL
ORANGEBURG     FAIR      34  25  69 CALM      30.07R
BARNWELL       FAIR      34  27  75 CALM      30.08R
AIKEN          FAIR      32  27  80 CALM      30.09S
MANNING        FAIR      30  30 100 CALM      30.06R
COLUMBIA       CLEAR     37  25  61 NW5       30.07R WCI  33
SUMTER         NOT AVBL
FLORENCE       CLEAR     35  21  56 NW10      30.04R WCI  27
MYRTLE BEACH   CLEAR     36  21  55 NW8       30.05R WCI  29
N MYRTLE BEACH PTCLDY    36  19  50 NW7       30.02R WCI  30

$$

GAZ063-065-086>088-099>101-113>116-118-119-134>141-150-280800-
...SOUTHEAST GEORGIA...

CITY           SKY/WX    TMP DP  RH WIND       PRES   REMARKS
SAVANNAH ARPT  CLEAR     38  30  73 NW8       30.08R WCI  32
HUNTER AAF     NOT AVBL
FORT STEWART   NOT AVBL
STATESBORO     CLEAR     35  31  87 NW6       30.09R WCI  30
SYLVANIA       SUNNY     36  31  82 N3        30.10R
CLAXTON        FAIR      37  32  81 NW6       30.10R WCI  33

...CSRA...CENTRAL AND FAR SOUTHEAST GEORGIA...

CITY           SKY/WX    TMP DP  RH WIND       PRES   REMARKS
THOMSON        CLEAR     32  30  94 CALM      30.13R
AUGUSTA-BUSH   CLEAR     29  25  85 CALM      30.09R
AUGUSTA-DANIEL CLEAR     36  28  73 CALM      30.08R
SWAINSBORO     FAIR      34  27  75 CALM      30.10R
VIDALIA        CLEAR     37  32  81 NW3       30.10R
EASTMAN        FAIR      37  32  84 CALM      30.13S
HAZLEHURST     FAIR      40  33  74 NW5       30.10R WCI  37
ALMA           CLEAR     40  30  67 NW8       30.11R WCI  34
WAYCROSS       CLEAR     42  34  72 NW7       30.11R
JESUP          FAIR      41  34  75 CALM      30.10R
BAXLEY         FAIR      41  32  70 NW8       30.10R
BRUNSWICK      CLEAR     41  32  70 NW3       30.10R
SAINT SIMONS   CLEAR     42  30  62 NW9       30.08R

$$

SCZ027-028-034-036>038-045-046-048>050-GAZ119-141-280800-
...LAKE AND SUPPLEMENTAL COASTAL OBSERVATIONS...

STATION/POSITION TIME  TEMP    WIND        PRES    WAVE   SWELL
                       AIR SEA DIR/SP/G            HT/PER HT/PER/DIR
                 (UTC) (F)     (DEG/KT/KT) (MB)    (FT/S) (FT/S/D)
UPR LAKE MARION  NOT AVBL
WINYAH BAY       NOT AVBL
LAKE MURRAY      0600   35     340/  1/  5 1017.3R
ACE BASIN NERRS  NOT AVBL
FORT PULASKI     0600   43 52  300/ 12/ 16 1017.7R
SAPELO ISLAND    0600   42     310/  7     1018.0S

$$

ANZ835-935-AMZ111-154-330-350-352-354-370-450-454-472-280800-
...C-MAN AND BUOY OBSERVATIONS...

STATION/POSITION TIME  TEMP    WIND        PRES    WAVE   SWELL
                       AIR SEA DIR/SP/G            HT/PER HT/PER/DIR
                 (UTC) (F)     (DEG/KT/KT) (MB)    (FT/S) (FT/S/D)
BUOY 41004       0650   50 67  330/ 19/ 23 1015.4R   4/ 4   2/11
BUOY 41008       0650   47 54  330/ 19/ 23 1017.1R   4/ 4
FOLLY BEACH CMAN 0600   41     330/  8/ 12 1017.1R
CAPERS NEARSHORE 0600   44     350/ 16/ 17   N/A
FRIPP NEARSHORE  0600   45     320/ 17/ 21   N/A


STATION/POSITION TIME  TEMP    WIND        PRES    WAVE   SWELL
                       AIR SEA DIR/SP/G            HT/PER HT/PER/DIR
                 (UTC) (F)     (DEG/KT/KT) (MB)    (FT/S) (FT/S/D)
5E ST. MARYS GA  0622      58                N/A     3/ 4
FRYING PAN BUOY  0650   45 65  340/ 21/ 25 1015.3R   5/ 4   2/170/ 7
BUOY 41025       0650   40 58  340/ 19/ 25 1013.0R   9/14   8/ 40/14
CAPE LOOKOUT NC  0600   38     330/ 14/ 16 1014.1R
BUOY 41002       0650   53 71  310/ 14/ 25 1012.0R  11/12  10/350/12
BUOY 41010       0620   63 75  320/ 23/ 29 1014.1R
ST AUGUSTINE FL  0700   46     320/  8/ 10 1018.9R


$$


USA.gov is the U.S. government's official web portal to all federal, state and local government web resources and services.